Location: Naalehu
(19.0640°N, 155.5860°W)
Time: 23:43:34
(UTC-10:00)

Envisat - Visible Passes

Search period start: 25 April 2019 00:00
Search period end: 05 May 2019 00:00
Orbit: 764 x 766 km, 98.2° (Epoch: 25 April)

Date Brightness Start Highest point End Pass type
(mag) Time Alt. Az. Time Alt. Az. Time Alt. Az.
25 Apr 3.1 19:11:53 10° S 19:16:57 86° WSW 19:22:02 10° NNW visible
26 Apr 5.7 20:16:19 10° SW 20:19:15 16° W 20:22:14 10° WNW visible
27 Apr 4.3 19:37:41 10° S 19:42:27 42° W 19:47:14 10° NNW visible
28 Apr 3.0 19:00:43 10° SSE 19:05:45 71° ENE 19:10:48 10° N visible
29 Apr 5.4 20:04:15 10° SSW 20:08:01 21° W 20:11:47 10° NW visible
30 Apr 3.7 19:26:16 10° S 19:31:14 57° W 19:36:13 10° NNW visible
02 May 5.0 19:52:28 10° SSW 19:56:46 28° W 20:01:04 10° NW visible
03 May 3.2 19:14:57 10° S 19:20:01 77° WSW 19:25:05 10° NNW visible
04 May 5.8 20:19:50 10° SW 20:22:21 14° W 20:24:52 10° WNW visible
